Regional Weather Roundup
Issued by NWS

Home | Current Version | Previous Version | Graphics & Text | Print | Product List | Glossary On
Versions: 1 2 3 4 5 6 7 8 9 10 11 12 13 14 15 16 17 18 19 20 21 22 23 24 25 26 27 28 29 30 31 32 33 34 35 36 37 38 39 40 41 42 43 44 45 46 47 48 49 50
000
ASUS43 KOAX 182102
RWRNE

WEATHER ROUNDUP FOR NEBRASKA
NATIONAL WEATHER SERVICE OMAHA NE
400 PM CDT THU SEP 18 2014

NOTES: SATELLITE DATA IS BEING USED TO AUGMENT CLOUD COVER ABOVE
       12000 FEET.
       "FAIR" INDICATES FEW OR NO CLOUDS BELOW 12,000 FEET WITH NO
       SIGNIFICANT WEATHER AND/OR OBSTRUCTIONS TO VISIBILITY.

  * THESE STATIONS DO NOT REPORT WEATHER SUCH AS RAIN...SNOW OR FOG.

NEZ001>004-019>022-054>056-182200-
NEBRASKA PANHANDLE

CITY           SKY/WX    TMP DP  RH WIND       PRES   REMARKS
SCOTTSBLUFF    MOSUNNY   90  56  31 E12       29.87F
ALLIANCE       SUNNY     87  54  32 S12G21    29.88F
CHADRON        SUNNY     92  52  25 S10       29.79F
KIMBALL        SUNNY     90  37  15 S15G23    29.93F
SIDNEY         SUNNY     89  53  29 S13       29.94F
$$

NEZ057>060-069>072-079>082-182200-
SOUTHWEST NEBRASKA

CITY           SKY/WX    TMP DP  RH WIND       PRES   REMARKS
NORTH PLATTE   CLOUDY    70  61  73 SE10      29.94F
IMPERIAL       CLOUDY    71  62  73 SE13      29.94F
LEXINGTON      CLOUDY    71  65  81 SE13      29.94F
MCCOOK         CLOUDY    67  64  90 SE7       29.95F FOG
OGALLALA       PTSUNNY   75  65  70 S13       29.93F
$$

NEZ005>010-023>029-035>040-094-182200-
NORTH CENTRAL NEBRASKA

CITY           SKY/WX    TMP DP  RH WIND       PRES   REMARKS
VALENTINE      SUNNY     79  62  56 S23G30    29.86F
AINSWORTH      SUNNY     79  59  50 S16G26    29.89F
BROKEN BOW     PTSUNNY   74  62  66 S16G24    29.94S
O`NEILL        SUNNY     78  60  54 S15G23    29.92F
ORD            SUNNY     78  58  49 S13G24    29.91F
THEDFORD       SUNNY     79  63  57 S17G24    29.92F
$$

NEZ041-046>049-061>064-073>077-083>087-182200-
SOUTH CENTRAL NEBRASKA

CITY           SKY/WX    TMP DP  RH WIND       PRES   REMARKS
GRAND ISLAND   PTSUNNY   76  65  68 S14       29.95F
AURORA         MOSUNNY   76  63  63 S12       29.95S
HASTINGS       CLOUDY    69  62  78 SE12      29.95F
HEBRON         CLOUDY    76  63  63 S7        29.95F
HOLDREGE       CLOUDY    67  64  90 SE10      29.94F FOG
KEARNEY *      CLOUDY    68  64  88 SE12      29.96F
YORK           PTSUNNY   77  64  65 S13       29.95S
$$

NEZ011>018-030>034-042>045-182200-
NORTHEAST NEBRASKA

CITY           SKY/WX    TMP DP  RH WIND       PRES   REMARKS
NORFOLK        SUNNY     76  59  55 SE16      29.94F
ALBION         SUNNY     76  59  55 SE14G20   29.94F
BLAIR          SUNNY     76  56  50 SE8       29.97F
COLUMBUS *     SUNNY     79  61  53 SE10G17   29.95F
FREMONT        SUNNY     77  58  50 E12       29.97F
TEKAMAH        SUNNY     77  57  50 SE10G17   29.96F
WAYNE          SUNNY     76  59  54 S14       29.96F
$$

NEZ050>053-065>068-078-088>093-182200-
SOUTHEAST NEBRASKA

CITY           SKY/WX    TMP DP  RH WIND       PRES   REMARKS
LINCOLN        SUNNY     79  57  46 SE10      29.96F
OMAHA EPPLEY   MOSUNNY   76  54  46 SE8       29.97F
BEATRICE       PTSUNNY   77  63  61 SE8       29.95F
FALLS CITY     CLOUDY    68  60  75 SE8       29.99F
NEBRASKA CITY  SUNNY     73  52  48 SE8G17    29.99S
PLATTSMOUTH    SUNNY     74  56  53 SE7       29.98F
$$

NEZ044-045-051>053-067-182200-
OMAHA AREA

CITY           SKY/WX    TMP DP  RH WIND       PRES   REMARKS
OMAHA EPPLEY   MOSUNNY   76  54  46 SE8       29.97F
BLAIR          SUNNY     76  56  50 SE8       29.97F
FREMONT        SUNNY     77  58  50 E12       29.97F
MILLARD        SUNNY     76  58  53 SE10      29.96F
OFFUTT AFB     SUNNY     76  63  64 SE13G18   29.97F
PLATTSMOUTH    SUNNY     74  56  53 SE7       29.98F
WAHOO          FAIR      78  54  43 SE7       29.96F
$$


USA.gov is the U.S. government's official web portal to all federal, state and local government web resources and services.